Comisión Nacional del Agua
Subdirección General Técnica
Estación: Agustín Melgar
Clave: C30273
Estado: Veracruz de Ignacio de la Llave
Municipio: Uxpanapa

Fecha, Precipitación(mm), Temperatura Media(ºC), Temperatura Máxima(ºC), Temperatura Mínima(ºC), Evaporación(mm)
1975/07/01,0.20,25.50,30.00,21.00,6.90
1975/07/02,24.10,26.00,31.00,21.00,6.00
1975/07/03,52.10,23.50,27.00,20.00,4.40
1975/07/04,8.60,24.00,26.00,22.00,5.60
1975/07/05,20.50,24.50,28.00,21.00,3.90
1975/07/06,0.00,24.50,29.00,20.00,2.40
1975/07/07,3.80,26.50,30.00,23.00,9.80
1975/07/08,0.00,26.00,29.00,23.00,4.00
1975/07/09,125.30,25.50,30.00,21.00,4.70
1975/07/10,31.10,24.50,28.00,21.00,2.40
1975/07/11,12.90,25.00,29.00,21.00,6.30
1975/07/12,0.00,28.50,34.00,23.00,2.60
1975/07/13,0.00,27.00,33.00,21.00,5.00
1975/07/14,0.30,26.75,33.00,20.50,7.90
1975/07/15,5.20,27.00,34.00,20.00,8.80
1975/07/16,7.20,26.50,32.00,21.00,4.00
1975/07/17,0.00,25.50,31.00,20.00,2.90
1975/07/18,1.30,25.25,29.50,21.00,3.30
1975/07/19,0.00,26.00,32.00,20.00,3.10
1975/07/20,1.00,26.75,31.00,22.50,3.30
1975/07/21,20.50,27.00,32.00,22.00,5.40
1975/07/22,4.80,26.00,30.00,22.00,4.00
1975/07/23,6.20,27.50,32.00,23.00,2.80
1975/07/24,0.00,26.00,30.50,21.50,5.30
1975/07/25,5.50,25.50,31.00,20.00,4.90
1975/07/26,0.00,24.50,29.00,20.00,2.10
1975/07/27,0.00,26.50,31.00,22.00,3.00
1975/07/28,2.80,24.50,28.00,21.00,2.30
1975/07/29,3.10,26.50,32.00,21.00,4.70
1975/07/30,0.00,25.50,31.00,20.00,5.40
1975/07/31,0.00,26.50,31.00,22.00,3.40
1975/08/01,0.00,26.75,31.50,22.00,3.70
1975/08/02,0.00,26.50,31.00,22.00,2.40
1975/08/03,11.50,26.00,30.00,22.00,5.70
1975/08/04,17.40,25.00,29.00,21.00,6.50
1975/08/05,11.00,25.75,29.50,22.00,4.90
1975/08/06,41.10,25.75,30.00,21.50,6.80
1975/08/07,10.60,24.50,28.50,20.50,3.10
1975/08/08,2.90,25.50,30.00,21.00,3.20
1975/08/09,3.80,26.50,31.00,22.00,3.60
1975/08/10,44.60,25.75,30.00,21.50,6.60
1975/08/11,24.30,24.25,27.50,21.00,3.50
1975/08/12,65.20,26.50,30.50,22.50,5.90
1975/08/13,47.00,25.75,31.00,20.50,6.00
1975/08/14,0.00,24.75,29.50,20.00,4.70
1975/08/15,0.00,26.50,30.50,22.50,6.20
1975/08/16,7.80,26.25,30.00,22.50,6.50
1975/08/17,12.10,24.75,27.50,22.00,1.80
1975/08/18,78.20,25.50,29.00,22.00,3.80
1975/08/19,24.20,24.50,28.00,21.00,3.30
1975/08/20,22.30,24.75,28.00,21.50,3.80
1975/08/21,44.30,24.50,28.00,21.00,3.00
1975/08/22,24.40,25.50,29.50,21.50,4.00
1975/08/23,36.00,26.00,30.00,22.00,4.00
1975/08/24,50.40,25.25,29.50,21.00,4.50
1975/08/25,1.00,25.75,31.00,20.50,6.90
1975/08/26,0.00,26.25,32.50,20.00,4.30
1975/08/27,0.00,25.25,28.50,22.00,6.70
1975/08/28,0.00,25.75,30.50,21.00,3.20
1975/08/29,0.00,26.00,31.00,21.00,3.10
1975/08/30,0.00,28.00,34.00,22.00,3.40
1975/08/31,0.00,26.00,32.00,20.00,4.20
1975/09/01,21.80,27.00,34.00,20.00,4.20
1975/09/02,9.70,26.00,31.00,21.00,3.70
1975/09/03,14.30,25.00,28.50,21.50,2.70
1975/09/04,12.60,26.25,30.50,22.00,3.00
1975/09/05,10.80,26.00,30.00,22.00,4.10
1975/09/06,17.50,26.00,29.00,23.00,3.70
1975/09/07,17.50,26.00,31.00,21.00,3.50
1975/09/08,68.50,24.25,27.00,21.50,3.50
1975/09/09,112.90,23.75,24.50,23.00,3.10
1975/09/10,10.00,25.00,28.00,22.00,2.50
1975/09/11,4.00,26.50,31.00,22.00,3.80
1975/09/12,26.00,26.00,30.00,22.00,4.30
1975/09/13,5.50,24.00,27.00,21.00,1.70
1975/09/14,100.00,25.00,28.00,22.00,3.10
1975/09/15,32.70,24.50,28.00,21.00,4.30
1975/09/16,11.50,25.75,30.00,21.50,3.10
1975/09/17,0.00,25.75,30.50,21.00,3.90
1975/09/18,0.00,26.50,32.00,21.00,5.80
1975/09/19,0.00,28.00,33.00,23.00,4.00
1975/09/20,0.60,27.00,31.00,23.00,3.70
1975/09/21,2.50,26.00,31.00,21.00,3.00
1975/09/22,31.40,25.50,30.00,21.00,4.40
1975/09/23,8.10,21.50,22.00,21.00,1.30
1975/09/24,0.30,20.25,23.00,17.50,1.30
1975/09/25,13.00,18.50,20.00,17.00,2.80
1975/09/26,5.10,19.50,21.00,18.00,1.60
1975/09/27,3.50,22.50,27.00,18.00,2.70
1975/09/28,1.50,22.50,27.00,18.00,3.40
1975/09/29,0.00,24.00,28.00,20.00,1.30
1975/09/30,1.00,24.00,29.00,19.00,1.70
1975/10/01,36.50,23.00,27.00,19.00,4.10
1975/10/02,80.00,21.75,23.50,20.00,3.80
1975/10/03,63.00,22.00,24.00,20.00,3.00
1975/10/04,20.00,22.50,25.00,20.00,4.20
1975/10/05,29.90,21.75,23.50,20.00,4.40
1975/10/06,41.90,22.25,24.50,20.00,2.30
1975/10/07,55.60,20.00,21.00,19.00,1.00
1975/10/08,3.70,22.50,26.00,19.00,1.20
1975/10/09,72.10,24.00,28.00,20.00,2.60
1975/10/10,112.00,23.25,25.00,21.50,2.30
1975/10/11,24.30,23.75,26.50,21.00,2.70
1975/10/12,0.60,23.25,26.50,20.00,1.60
1975/10/13,0.00,24.00,28.00,20.00,2.90
1975/10/14,4.80,26.00,30.00,22.00,5.90
1975/10/15,0.00,25.75,31.50,20.00,5.10
1975/10/16,0.00,26.75,33.00,20.50,5.90
1975/10/17,20.30,25.50,30.00,21.00,3.40
1975/10/18,20.30,23.75,26.00,21.50,3.60
1975/10/19,0.40,22.25,26.00,18.50,1.70
1975/10/20,0.00,22.50,27.00,18.00,5.50
1975/10/21,0.00,20.50,26.00,15.00,3.30
1975/10/22,0.10,22.25,28.50,16.00,4.20
1975/10/23,0.00,25.50,33.00,18.00,4.80
1975/10/24,0.00,25.00,33.00,17.00,5.70
1975/10/25,0.00,24.75,32.00,17.50,3.80
1975/10/26,0.00,26.00,31.00,21.00,4.40
1975/10/27,0.00,24.75,30.00,19.50,5.10
1975/10/28,0.00,23.50,27.00,20.00,2.30
1975/10/29,6.50,24.50,30.00,19.00,2.70
1975/10/30,39.50,20.75,21.50,20.00,3.60
1975/10/31,13.70,21.50,23.50,19.50,2.00
1975/11/01,0.00,24.00,28.00,20.00,1.90
1975/11/02,4.50,25.25,29.00,21.50,3.00
1975/11/03,40.70,23.25,24.50,22.00,4.00
1975/11/04,37.40,24.00,26.00,22.00,4.00
1975/11/05,2.00,23.50,27.00,20.00,3.80
1975/11/06,1.00,24.00,27.00,21.00,3.40
1975/11/07,0.00,23.75,29.00,18.50,3.70
1975/11/08,0.00,24.25,31.00,17.50,3.90
1975/11/09,0.00,25.50,34.00,17.00,4.00
1975/11/10,4.00,24.50,30.00,19.00,1.70
1975/11/11,1.50,24.00,29.00,19.00,3.40
1975/11/12,37.60,23.50,28.00,19.00,3.10
1975/11/13,12.90,20.25,21.50,19.00,1.60
1975/11/14,2.20,18.00,21.00,15.00,1.80
1975/11/15,0.10,17.25,19.50,15.00,1.00
1975/11/16,0.00,20.00,25.00,15.00,1.50
1975/11/17,0.00,20.25,26.50,14.00,5.30
1975/11/18,1.90,20.50,26.00,15.00,2.20
1975/11/19,0.00,20.00,24.00,16.00,1.80
1975/11/20,8.40,23.75,27.50,20.00,1.50
1975/11/21,17.50,21.50,23.00,20.00,1.60
1975/11/22,12.00,21.75,23.50,20.00,2.90
1975/11/23,5.00,17.50,18.00,17.00,0.90
1975/11/24,1.30,18.50,21.00,16.00,1.10
1975/11/25,1.10,20.75,23.50,18.00,0.90
1975/11/26,0.50,24.50,30.00,19.00,2.90
1975/11/27,0.00,23.50,28.00,19.00,3.50
1975/11/28,0.00,22.50,26.00,19.00,2.30
1975/11/29,0.00,23.75,28.00,19.50,3.10
1975/11/30,7.10,25.00,30.00,20.00,1.90
1975/12/01,29.00,20.75,21.50,20.00,9.10
1975/12/02,0.00,20.50,23.00,18.00,1.20
1975/12/03,0.00,22.00,26.00,18.00,1.70
1975/12/04,0.00,21.25,24.50,18.00,1.10
1975/12/05,1.50,23.00,26.00,20.00,1.10
1975/12/06,26.00,21.50,25.00,18.00,2.30
1975/12/07,7.80,21.50,24.00,19.00,4.10
1975/12/08,2.50,21.75,25.00,18.50,3.50
1975/12/09,1.60,20.50,24.00,17.00,1.60
1975/12/10,0.50,20.25,23.50,17.00,1.10
1975/12/11,1.00,20.75,24.00,17.50,3.20
1975/12/12,0.00,20.25,23.50,17.00,4.80
1975/12/13,0.00,20.75,25.00,16.50,2.60
1975/12/14,1.00,20.50,24.00,17.00,1.20
1975/12/15,1.50,22.75,26.50,19.00,5.30
1975/12/16,25.00,21.75,24.00,19.50,4.70
1975/12/17,32.20,21.50,24.00,19.00,3.00
1975/12/18,2.50,22.00,26.00,18.00,3.60
1975/12/19,0.00,20.50,26.00,15.00,4.40
1975/12/20,20.00,17.50,20.00,15.00,1.40
1975/12/21,6.00,19.50,22.00,17.00,3.70
1975/12/22,0.00,19.50,23.00,16.00,2.90
1975/12/23,0.00,19.00,25.00,13.00,5.10
1975/12/24,0.00,19.75,25.50,14.00,3.70
1975/12/25,19.00,20.00,26.00,14.00,2.70
1975/12/26,11.00,18.00,22.00,14.00,2.10
1975/12/27,1.20,18.00,20.00,16.00,2.90
1975/12/28,0.00,21.00,27.00,15.00,3.00
1975/12/29,0.00,23.00,32.00,14.00,5.50
1975/12/30,0.00,18.00,22.00,14.00,2.10
1975/12/31,0.00,23.00,29.00,17.00,1.90
1976/01/01,0.00,23.00,29.00,17.00,1.10
1976/01/02,12.50,23.50,32.00,15.00,2.60
1976/01/03,1.00,19.50,25.00,14.00,4.20
1976/01/04,12.50,16.00,18.00,14.00,1.20
1976/01/05,0.00,17.50,21.00,14.00,1.10
1976/01/06,0.00,20.00,24.00,16.00,1.90
1976/01/07,0.00,21.50,27.00,16.00,2.60
1976/01/08,93.00,19.50,20.00,19.00,1.30
1976/01/09,21.00,15.50,19.00,12.00,3.50
1976/01/10,0.00,15.50,19.00,12.00,1.00
1976/01/11,33.20,18.00,22.00,14.00,1.00
1976/01/12,2.00,20.50,26.00,15.00,3.30
1976/01/13,1.20,21.25,26.50,16.00,2.20
1976/01/14,25.00,21.50,28.00,15.00,2.90
1976/01/15,31.00,22.00,25.00,19.00,2.00
1976/01/16,17.00,19.50,21.00,18.00,2.90
1976/01/17,0.00,19.05,20.10,18.00,5.20
1976/01/18,0.00,17.00,20.00,14.00,1.20
1976/01/19,0.00,16.50,21.00,12.00,3.70
1976/01/20,9.00,16.50,19.00,14.00,5.40
1976/01/21,19.00,17.00,19.00,15.00,5.80
1976/01/22,0.50,17.50,20.00,15.00,1.50
1976/01/23,0.00,17.50,22.00,13.00,0.40
1976/01/24,0.00,17.00,21.00,13.00,6.20
1976/01/25,0.00,22.00,32.00,12.00,3.60
1976/01/26,29.00,20.50,28.00,13.00,7.40
1976/01/27,60.00,15.50,17.00,14.00,2.00
1976/01/28,8.00,14.50,17.00,12.00,6.90
1976/01/29,2.50,15.00,18.00,12.00,3.90
1976/01/30,0.10,18.50,22.00,15.00,3.80
1976/01/31,7.30,17.75,22.00,13.50,5.00
1976/02/01,0.00,18.25,21.00,15.50,4.90
1976/02/02,0.00,16.50,22.00,11.00,4.90
1976/02/03,0.00,18.50,27.00,10.00,7.00
1976/02/04,0.00,19.00,27.00,11.00,4.30
1976/02/05,0.00,22.00,29.00,15.00,6.60
1976/02/06,20.00,20.00,24.00,16.00,4.30
1976/02/07,14.00,20.50,24.00,17.00,8.80
1976/02/08,10.40,21.50,27.00,16.00,5.40
1976/02/09,0.00,19.00,24.00,14.00,7.20
1976/02/10,0.00,20.50,25.00,16.00,5.40
1976/02/11,0.00,19.50,24.00,15.00,4.60
1976/02/12,0.00,21.00,26.00,16.00,5.60
1976/02/13,1.00,20.00,25.00,15.00,3.50
1976/02/14,0.00,23.00,28.00,18.00,3.80
1976/02/15,0.50,22.50,26.00,19.00,2.00
1976/02/16,0.00,24.50,29.00,20.00,4.90
1976/02/17,0.00,25.00,33.00,17.00,3.70
1976/02/18,0.00,21.50,31.00,12.00,4.60
1976/02/19,0.00,23.75,30.50,17.00,2.50
1976/02/20,0.00,25.50,34.00,17.00,5.20
1976/02/21,20.00,22.00,33.00,11.00,4.10
1976/02/22,19.50,19.00,20.00,18.00,1.40
1976/02/23,3.50,14.55,15.10,14.00,1.90
1976/02/24,0.50,15.00,17.00,13.00,2.10
1976/02/25,2.00,15.50,18.00,13.00,1.50
1976/02/26,24.30,16.50,20.00,13.00,3.00
1976/02/27,4.00,16.00,19.00,13.00,2.50
1976/02/28,0.00,19.50,24.00,15.00,3.60
1976/02/29,0.00,21.00,28.00,14.00,2.00
1976/03/01,0.50,24.50,31.00,18.00,7.90
1976/03/02,0.00,24.50,31.00,18.00,5.40
1976/03/03,0.00,24.50,31.00,18.00,4.30
1976/03/04,0.00,25.50,34.00,17.00,4.90
1976/03/05,0.00,22.00,33.00,11.00,4.20
1976/03/06,2.50,21.50,29.00,14.00,2.70
1976/03/07,0.00,23.50,29.00,18.00,3.10
1976/03/08,0.00,27.00,35.00,19.00,5.20
1976/03/09,0.00,22.50,30.00,15.00,2.50
1976/03/10,0.00,25.00,30.00,20.00,3.50
1976/03/11,0.00,24.50,30.00,19.00,3.60
1976/03/12,0.00,26.50,35.00,18.00,5.50
1976/03/13,0.00,24.75,31.50,18.00,4.50
1976/03/14,0.00,25.00,30.00,20.00,2.70
1976/03/15,0.00,24.75,30.00,19.50,3.40
1976/03/16,0.40,25.50,32.00,19.00,3.60
1976/03/17,8.10,22.75,24.00,21.50,1.50
1976/03/18,0.90,22.00,26.00,18.00,1.40
1976/03/19,0.00,25.00,32.00,18.00,4.00
1976/03/20,0.00,24.00,32.00,16.00,4.90
1976/03/21,0.00,25.50,33.00,18.00,4.20
1976/03/22,12.50,21.50,27.00,16.00,2.60
1976/03/23,11.00,22.00,27.00,17.00,3.40
1976/03/24,0.00,23.00,29.00,17.00,4.60
1976/03/25,0.00,26.50,34.00,19.00,4.80
1976/03/26,0.00,27.00,35.00,19.00,4.90
1976/03/27,0.00,25.50,36.00,15.00,5.80
1976/03/28,0.00,27.00,36.00,18.00,5.40
1976/03/29,0.00,26.00,37.00,15.00,4.60
1976/03/30,0.00,25.50,35.00,16.00,4.10
1976/03/31,38.00,23.00,30.00,16.00,4.40
1976/04/01,4.30,17.50,20.00,15.00,2.10
1976/04/02,0.50,20.25,23.50,17.00,4.70
1976/04/03,0.00,23.00,29.00,17.00,1.20
1976/04/04,0.20,25.00,30.00,20.00,0.90
1976/04/05,1.40,25.00,30.00,20.00,5.90
1976/04/06,0.00,26.50,32.00,21.00,5.30
1976/04/07,0.00,28.00,35.00,21.00,4.20
1976/04/08,2.70,24.75,27.50,22.00,1.40
1976/04/09,0.00,23.75,29.50,18.00,6.00
1976/04/10,0.00,21.50,29.00,14.00,5.60
1976/04/11,0.40,22.50,29.00,16.00,3.00
1976/04/12,0.00,21.00,30.00,12.00,3.80
1976/04/13,0.00,24.00,30.00,18.00,4.40
1976/04/14,0.00,25.50,32.50,18.50,5.40
1976/04/15,0.00,25.00,32.00,18.00,5.80
1976/04/16,0.00,28.50,37.00,20.00,2.70
1976/04/17,0.00,28.50,37.00,20.00,6.20
1976/04/18,0.40,28.00,37.00,19.00,7.80
1976/04/19,0.10,28.00,33.00,23.00,8.40
1976/04/20,0.00,28.50,36.50,20.50,6.20
1976/04/21,0.00,28.50,35.00,22.00,5.20
1976/04/22,0.00,27.75,34.50,21.00,6.00
1976/04/23,0.00,28.00,36.50,19.50,6.00
1976/04/24,0.00,28.25,36.00,20.50,5.90
1976/04/25,0.20,26.50,34.00,19.00,3.10
1976/04/26,0.00,28.50,35.00,22.00,6.60
1976/04/27,0.00,27.00,34.00,20.00,4.70
1976/04/28,0.00,27.75,34.50,21.00,5.90
1976/04/29,0.00,29.00,36.50,21.50,6.20
1976/04/30,0.00,24.25,27.50,21.00,2.70
1976/05/01,63.40,25.25,32.00,18.50,5.80
1976/05/02,3.40,23.25,26.50,20.00,1.90
1976/05/03,0.00,24.00,28.00,20.00,3.80
1976/05/04,0.00,23.50,28.00,19.00,4.10
1976/05/05,0.00,26.25,32.00,20.50,5.60
1976/05/06,0.00,27.00,35.00,19.00,4.80
1976/05/07,0.00,26.50,35.00,18.00,6.00
1976/05/08,17.50,27.25,34.00,20.50,3.50
1976/05/09,21.50,25.50,29.00,22.00,5.60
1976/05/10,0.00,26.00,31.00,21.00,1.60
1976/05/11,0.00,28.00,34.00,22.00,3.30
1976/05/12,0.00,27.50,31.00,24.00,4.30
1976/05/13,0.00,28.00,36.00,20.00,5.20
1976/05/14,2.50,23.00,26.00,20.00,0.30
1976/05/15,0.00,25.00,30.00,20.00,1.90
1976/05/16,0.00,27.00,35.00,19.00,5.00
1976/05/17,0.00,26.00,32.00,20.00,2.80
1976/05/18,1.50,25.00,30.00,20.00,3.20
1976/05/19,0.00,25.50,30.00,21.00,4.10
1976/05/20,0.00,26.75,33.50,20.00,4.50
1976/05/21,0.00,27.50,35.00,20.00,5.70
1976/05/22,0.00,28.00,36.00,20.00,5.60
1976/05/23,0.00,29.00,38.00,20.00,6.30
1976/05/24,0.00,28.50,37.00,20.00,6.50
1976/05/25,0.00,29.00,37.00,21.00,5.90
1976/05/26,0.00,30.00,37.00,23.00,7.80
1976/05/27,0.00,28.00,36.00,20.00,5.80
1976/05/28,0.00,29.00,35.00,23.00,3.90
1976/05/29,0.00,28.50,36.00,21.00,6.00
1976/05/30,0.00,28.50,36.00,21.00,4.80
1976/05/31,0.00,29.50,38.00,21.00,5.30
1976/06/01,0.00,29.50,36.00,23.00,2.30
1976/06/02,2.50,30.00,35.00,25.00,5.00
1976/06/03,2.20,26.25,32.00,20.50,4.40
1976/06/04,6.50,25.50,30.00,21.00,4.30
1976/06/05,0.00,27.00,33.00,21.00,5.20
1976/06/06,0.50,23.50,27.00,20.00,2.00
1976/06/07,0.00,26.00,31.00,21.00,4.80
1976/06/08,20.00,27.00,33.00,21.00,5.00
1976/06/09,6.50,26.00,32.00,20.00,6.50
1976/06/10,8.50,25.25,28.50,22.00,4.50
1976/06/11,0.00,26.50,33.00,20.00,5.70
1976/06/12,0.00,27.00,33.00,21.00,4.10
1976/06/13,2.00,27.50,32.00,23.00,3.00
1976/06/14,0.00,28.00,34.00,22.00,5.30
1976/06/15,0.00,28.50,36.00,21.00,3.80
1976/06/16,0.00,30.50,39.00,22.00,6.50
1976/06/17,0.00,30.00,36.00,24.00,7.50
1976/06/18,0.00,28.50,35.00,22.00,5.00
1976/06/19,14.60,27.50,32.00,23.00,3.10
1976/06/20,13.30,25.25,28.50,22.00,3.30
1976/06/21,33.00,24.50,27.00,22.00,3.40
1976/06/22,0.00,22.50,26.00,19.00,1.50
1976/06/23,0.00,26.50,32.00,21.00,3.50
1976/06/24,3.10,27.50,33.00,22.00,7.50
1976/06/25,10.00,26.50,31.00,22.00,4.10
1976/06/26,58.20,26.00,30.00,22.00,3.20
1976/06/27,10.50,24.50,27.00,22.00,2.40
1976/06/28,11.30,26.00,30.00,22.00,3.40
1976/06/29,0.00,27.00,31.00,23.00,3.00
1976/06/30,10.00,25.00,27.00,23.00,3.00
1976/07/01,0.00,24.50,29.00,20.00,3.70
1976/07/02,1.50,26.00,31.00,21.00,4.00
1976/07/03,6.00,26.50,32.00,21.00,4.90
1976/07/04,0.00,27.00,32.00,22.00,3.10
1976/07/05,80.80,26.50,32.00,21.00,5.70
1976/07/06,24.00,27.00,33.00,21.00,5.60
1976/07/07,41.00,25.50,30.00,21.00,8.90
1976/07/08,1.00,26.00,31.00,21.00,1.70
1976/07/09,6.00,26.50,32.00,21.00,12.70
1976/07/10,13.00,27.00,33.00,21.00,3.00
1976/07/11,0.00,27.00,34.00,20.00,2.60
1976/07/12,1.00,26.50,33.00,20.00,3.00
1976/07/13,18.00,28.00,36.00,20.00,3.50
1976/07/14,82.00,27.50,35.00,20.00,7.00
1976/07/15,3.00,27.50,35.00,20.00,4.50
1976/07/16,0.00,25.00,30.00,20.00,1.00
1976/07/17,3.50,26.00,30.00,22.00,4.80
1976/07/18,32.00,25.50,31.00,20.00,6.10
1976/07/19,10.50,25.00,30.00,20.00,5.60
1976/07/20,20.00,24.00,28.00,20.00,2.30
1976/07/21,5.50,25.00,30.00,20.00,2.50
1976/07/22,4.50,30.00,39.00,21.00,4.10
1976/07/23,13.00,24.50,28.00,21.00,2.10
1976/07/24,5.50,24.50,29.00,20.00,5.50
1976/07/25,40.00,23.50,28.00,19.00,4.10
1976/07/26,33.00,24.50,29.00,20.00,3.50
1976/07/27,1.00,24.50,29.00,20.00,3.60
1976/07/28,5.00,25.50,31.00,20.00,3.60
1976/07/29,0.00,25.50,30.00,21.00,3.60
1976/07/30,4.50,26.00,31.00,21.00,3.90
1976/07/31,0.00,25.50,30.00,21.00,5.00
1976/08/01,0.00,26.00,31.00,21.00,2.90
1976/08/02,22.00,27.00,32.00,22.00,4.30
1976/08/03,51.20,26.50,32.00,21.00,3.20
1976/08/04,3.00,25.00,30.00,20.00,2.90
1976/08/05,2.00,24.50,29.00,20.00,5.60
1976/08/06,60.00,26.50,31.00,22.00,6.10
1976/08/07,65.00,23.00,27.00,19.00,7.20
1976/08/08,3.00,24.50,30.00,19.00,2.90
1976/08/09,3.00,25.00,30.00,20.00,3.80
1976/08/10,50.80,24.50,29.00,20.00,5.80
1976/08/11,21.00,25.00,30.00,20.00,3.90
1976/08/12,10.50,24.50,29.00,20.00,4.70
1976/08/13,7.00,25.50,31.00,20.00,2.70
1976/08/14,1.50,25.00,30.00,20.00,3.30
1976/08/15,43.60,25.00,30.00,20.00,2.90
1976/08/16,0.00,25.50,30.00,21.00,2.50
1976/08/17,5.00,26.00,32.00,20.00,3.90
1976/08/18,23.50,25.50,31.00,20.00,6.20
1976/08/19,0.00,25.00,30.00,20.00,3.20
1976/08/20,3.00,25.00,30.00,20.00,3.20
1976/08/21,1.20,28.00,36.00,20.00,3.10
1976/08/22,11.50,26.50,32.00,21.00,3.30
1976/08/23,2.50,25.25,29.50,21.00,1.30
1976/08/24,25.00,26.25,30.00,22.50,6.10
1976/08/25,28.50,25.50,30.00,21.00,5.50
1976/08/26,33.00,25.50,31.00,20.00,5.10
1976/08/27,3.00,25.00,30.00,20.00,2.50
1976/08/28,31.00,25.00,29.00,21.00,2.40
1976/08/29,28.50,24.50,29.00,20.00,3.20
1976/08/30,43.30,24.00,27.00,21.00,2.40
1976/08/31,9.00,25.50,30.00,21.00,1.40
1976/09/01,22.00,25.00,29.00,21.00,4.70
1976/09/02,38.50,25.00,30.00,20.00,3.00
1976/09/03,60.00,25.25,30.50,20.00,3.10
1976/09/04,6.50,24.50,29.00,20.00,1.30
1976/09/05,8.00,25.00,30.00,20.00,4.80
1976/09/06,100.00,26.00,30.00,22.00,4.30
1976/09/07,0.00,24.50,30.00,19.00,2.70
1976/09/08,9.00,25.00,30.00,20.00,2.30
1976/09/09,20.00,26.00,31.00,21.00,4.30
1976/09/10,30.00,24.50,27.00,22.00,4.10
1976/09/11,53.00,25.50,29.00,22.00,4.30
1976/09/12,40.00,25.50,29.00,22.00,7.70
1976/09/13,12.00,25.50,30.00,21.00,1.90
1976/09/14,87.00,24.00,27.00,21.00,4.50
1976/09/15,24.00,24.50,29.00,20.00,3.50
1976/09/16,3.00,25.50,31.00,20.00,2.90
1976/09/17,3.50,25.50,30.00,21.00,2.40
1976/09/18,6.00,26.50,32.00,21.00,3.90
1976/09/19,0.00,27.50,34.00,21.00,5.30
1976/09/20,0.00,28.50,34.00,23.00,4.40
1976/09/21,0.00,28.00,34.00,22.00,5.40
1976/09/22,0.00,27.00,32.00,22.00,4.80
1976/09/23,11.50,27.50,34.00,21.00,3.70
1976/09/24,43.00,25.00,30.00,20.00,2.50
1976/09/25,8.20,29.50,38.00,21.00,4.30
1976/09/26,0.00,27.00,31.00,23.00,4.40
1976/09/27,0.00,31.50,37.00,26.00,4.20
1976/09/28,2.50,31.00,37.00,25.00,3.60
1976/09/29,66.30,28.50,33.00,24.00,4.90
1976/09/30,30.00,28.00,35.00,21.00,5.70
1976/10/01,13.90,26.25,31.50,21.00,6.30
1976/10/02,20.00,27.00,31.00,23.00,5.10
1976/10/03,0.00,26.75,31.50,22.00,6.30
1976/10/04,0.50,27.75,34.00,21.50,3.90
1976/10/05,13.00,27.50,34.00,21.00,5.70
1976/10/06,14.00,26.00,30.00,22.00,2.70
1976/10/07,0.00,26.00,31.00,21.00,3.00
1976/10/08,23.00,23.50,26.00,21.00,4.20
1976/10/09,5.50,17.00,18.00,16.00,1.10
1976/10/10,27.50,17.50,20.00,15.00,1.20
1976/10/11,35.50,18.00,20.00,16.00,3.60
1976/10/12,1.50,21.00,25.00,17.00,0.60
1976/10/13,1.00,23.50,28.00,19.00,3.10
1976/10/14,0.00,23.00,29.00,17.00,2.60
1976/10/15,0.00,25.00,33.00,17.00,5.10
1976/10/16,0.00,25.50,31.00,20.00,2.90
1976/10/17,41.00,23.00,25.00,21.00,2.00
1976/10/18,3.50,21.50,24.00,19.00,1.50
1976/10/19,0.00,23.50,29.00,18.00,3.40
1976/10/20,2.50,24.00,29.00,19.00,3.50
1976/10/21,11.00,20.50,23.00,18.00,1.20
1976/10/22,0.00,23.00,27.00,19.00,2.30
1976/10/23,0.00,22.00,27.00,17.00,3.30
1976/10/24,0.00,23.50,29.00,18.00,3.10
1976/10/25,0.00,24.00,28.00,20.00,1.50
1976/10/26,1.50,25.50,30.00,21.00,2.30
1976/10/27,0.00,26.50,32.00,21.00,4.40
1976/10/28,1.00,27.50,33.00,22.00,4.30
1976/10/29,0.00,27.00,31.00,23.00,2.30
1976/10/30,0.00,26.50,31.00,22.00,2.60
1976/10/31,35.00,23.05,24.10,22.00,3.40
1976/11/01,7.30,19.50,22.00,17.00,0.60
1976/11/02,18.00,21.50,24.00,19.00,0.60
1976/11/03,0.00,21.50,25.00,18.00,1.40
1976/11/04,0.00,18.50,21.00,16.00,3.00
1976/11/05,7.50,18.00,20.00,16.00,1.50
1976/11/06,4.50,17.00,19.00,15.00,0.60
1976/11/07,7.50,18.50,21.00,16.00,1.00
1976/11/08,6.00,19.50,22.00,17.00,0.10
1976/11/09,0.00,19.50,22.00,17.00,1.10
1976/11/10,0.00,21.50,26.00,17.00,2.50
1976/11/11,0.00,21.50,28.00,15.00,2.00
1976/11/12,0.00,22.00,28.00,16.00,3.00
1976/11/13,15.50,21.50,25.00,18.00,1.80
1976/11/14,20.00,20.00,21.00,19.00,1.80
1976/11/15,9.10,20.50,23.00,18.00,0.80
1976/11/16,5.00,20.50,23.00,18.00,2.50
1976/11/17,27.00,19.05,20.10,18.00,1.30
1976/11/18,0.20,18.00,20.00,16.00,1.30
1976/11/19,0.00,20.50,24.00,17.00,1.00
1976/11/20,35.00,20.50,24.00,17.00,1.30
1976/11/21,45.00,22.00,27.00,17.00,1.50
1976/11/22,26.00,19.00,20.00,18.00,1.90
1976/11/23,32.00,18.50,21.00,16.00,2.20
1976/11/24,34.00,18.50,20.00,17.00,2.00
1976/11/25,0.00,20.50,24.00,17.00,0.60
1976/11/26,0.00,22.50,27.00,18.00,2.50
1976/11/27,0.00,24.50,32.00,17.00,3.00
1976/11/28,70.00,25.50,33.00,18.00,1.00
1976/11/29,22.00,23.00,33.00,13.00,2.50
1976/11/30,13.00,14.50,16.00,13.00,1.40
1976/12/01,5.00,16.00,18.00,14.00,0.20
1976/12/02,34.00,17.50,19.00,16.00,1.40
1976/12/03,0.00,15.00,17.00,13.00,0.90
1976/12/04,3.00,18.00,22.00,14.00,2.10
1976/12/05,2.00,17.00,20.00,14.00,1.20
1976/12/06,0.00,22.50,28.00,17.00,1.40
1976/12/07,32.00,19.00,21.00,17.00,1.20
1976/12/08,27.00,15.55,16.10,15.00,0.50
1976/12/09,7.00,15.00,17.00,13.00,1.50
1976/12/10,6.00,16.50,19.00,14.00,3.00
1976/12/11,25.00,18.50,21.00,16.00,0.30
1976/12/12,12.00,18.50,21.00,16.00,0.80
1976/12/13,8.00,19.50,22.00,17.00,1.20
1976/12/14,3.00,19.00,21.00,17.00,1.10
1976/12/15,14.00,19.00,21.00,17.00,0.90
1976/12/16,7.00,18.50,20.00,17.00,1.00
1976/12/17,3.00,17.50,19.00,16.00,2.10
1976/12/18,3.00,18.00,20.00,16.00,1.00
1976/12/19,0.00,20.50,25.00,16.00,1.80
1976/12/20,21.00,21.00,26.00,16.00,3.40
1976/12/21,12.00,15.00,16.00,14.00,2.30
1976/12/22,6.00,16.00,18.00,14.00,1.50
1976/12/23,21.00,16.50,20.00,13.00,1.20
1976/12/24,2.00,17.00,20.00,14.00,2.50
1976/12/25,6.00,17.00,20.00,14.00,1.30
1976/12/26,0.00,17.00,20.00,14.00,0.20
1976/12/27,0.00,19.50,25.00,14.00,2.50
1976/12/28,3.00,21.00,30.00,12.00,1.30
1976/12/29,3.00,19.00,25.00,13.00,1.30
1976/12/30,2.10,22.00,30.00,14.00,0.80
1976/12/31,2.10,22.00,30.00,14.00,0.40
1977/01/01,1.00,20.00,25.00,15.00,1.30
1977/01/02,1.00,18.00,21.00,15.00,0.60
1977/01/03,7.90,20.00,22.00,18.00,1.70
1977/01/04,1.00,20.50,26.00,15.00,1.70
1977/01/05,1.00,19.05,20.10,18.00,1.50
1977/01/06,4.00,16.50,20.00,13.00,1.20
1977/01/07,2.00,19.00,20.00,18.00,0.20
1977/01/08,1.00,19.50,22.00,17.00,2.70
1977/01/09,20.00,22.00,30.00,14.00,0.50
1977/01/10,11.00,17.00,20.00,14.00,2.50
1977/01/11,17.00,15.50,18.00,13.00,0.60
1977/01/12,1.00,15.50,17.00,14.00,1.80
1977/01/13,1.00,17.00,20.00,14.00,2.30
1977/01/14,7.00,18.50,23.00,14.00,1.20
1977/01/15,12.00,17.00,20.00,14.00,1.40
1977/01/16,9.00,19.00,20.00,18.00,0.50
1977/01/17,5.10,17.00,19.00,15.00,1.30
1977/01/18,2.00,16.00,18.00,14.00,0.50
1977/01/19,0.00,15.50,18.00,13.00,0.60
1977/01/20,0.00,14.50,17.00,12.00,1.40
1977/01/21,1.00,14.00,18.00,10.00,1.30
1977/01/22,0.00,15.00,20.00,10.00,1.70
1977/01/23,0.00,17.00,20.00,14.00,1.70
1977/01/24,0.00,19.50,24.00,15.00,1.50
1977/01/25,1.00,19.05,22.10,16.00,1.50
1977/01/26,1.00,20.00,24.00,16.00,1.70
1977/01/27,0.00,22.00,32.00,12.00,2.50
1977/01/28,0.00,24.00,35.00,13.00,1.90
1977/01/29,1.00,20.50,24.00,17.00,1.20
1977/01/30,0.00,19.00,22.00,16.00,1.40
1977/01/31,2.50,18.00,20.00,16.00,1.00
1977/02/01,12.00,17.50,21.00,14.00,1.40
1977/02/02,0.00,18.50,24.00,13.00,0.60
1977/02/03,0.00,19.50,25.00,14.00,2.40
1977/02/04,10.50,18.00,21.00,15.00,1.80
1977/02/05,21.50,18.00,20.00,16.00,0.70
1977/02/06,6.50,17.50,21.00,14.00,1.40
1977/02/07,16.00,18.00,21.00,15.00,0.30